{"data":{"norad_id":63193,"intl_designator":"2025-048L","name":"STARLINK-11635 [DTC]","alt_names":[],"object_type":"PAYLOAD","status":"ACTIVE","operator":null,"country":"US","launch_date":"2025-03-13","launch_site_code":"AFETR","launch_vehicle":null,"mission":null,"orbit_class":"UNKNOWN","rcs_meters":null,"size_class":null,"mass_kg":null,"dimensions":null,"purposes":["comms"],"wikipedia_slug":null,"has_3d_model":false,"image_url":null,"decayed_at":null,"tle_current":{"epoch":"2026-05-24T22:06:51.266016Z","epoch_age_seconds":85803,"freshness":"FRESH","line1":"1 63193U 25048L   26144.92142669  .00188411  00000+0  14367-2 0  9992","line2":"2 63193  42.9990 220.1062 0001530  62.6308 297.4715 15.70874653 70518","mean_motion":15.70874653,"eccentricity":0.000153,"inclination_deg":42.999,"raan_deg":220.1062,"arg_perigee_deg":62.6308,"mean_anomaly_deg":297.4715,"bstar":0.0014367,"rev_number":7051,"period_min":91.668676253063,"perigee_km":355.36563507805,"apogee_km":357.42640218175,"semimajor_km":6734.5330186299,"source":"CELESTRAK","updated_at":"2026-05-25T13:38:19.920902Z"}}}